Meath Environmental Platform

Observations for Trim Market St

Time AQI Temp °C Hum % Pres Pa CO μg/m³ H₂S μg/m³ NO μg/m³ NO₂ μg/m³ O₃ μg/m³ SO₂ μg/m³ PM1 μg/m³ PM2.5 μg/m³ PM10 μg/m³
Monday 17 August 2026
06:34 2 17.2 82 2,147,483,647 0.11 0 2.01 4.03 56.14 0 0 1.06 3.66
06:30 2 17.2 82 2,147,483,647 0.12 0 2.04 3.91 52.73 0 0 1.53 4.21
06:28 2 17.2 82 2,147,483,647 0.11 0 2.04 3.94 54.04 0 0 1.07 3.66
06:24 2 17.3 82 2,147,483,647 0.13 0 2.03 3.28 63.03 0 0 1.08 3.65
06:21 2 17.3 82 2,147,483,647 0.15 0 2.02 4.37 50.88 0 0 1.08 3.64
06:20 2 17.3 82 2,147,483,647 0.09 0 2.02 3.9 52.24 0 0 1.08 3.64
06:19 2 17.3 82 2,147,483,647 0.11 0 2.02 3.76 53.44 0 0 1.08 3.64
06:18 2 17.3 82 2,147,483,647 0.11 0 2.01 3.73 54.09 0 0.71 1.09 3.64
06:17 2 17.3 82 2,147,483,647 0.1 0 1.98 3.43 54.33 0 0 0.62 3.08
06:16 2 17.3 82 2,147,483,647 0.09 0 1.95 5.43 58.68 0 0 0.62 3.08
06:15 2 17.3 82 2,147,483,647 0.09 0 1.99 4.84 53.11 0 0 0.62 3.08
06:14 2 17.3 82 2,147,483,647 0.09 0 1.99 3.92 51.78 0 0 1.56 5.86
06:13 2 17.3 82 2,147,483,647 0.09 0 2 3.84 48.34 0 0 0.63 3.63
06:12 2 17.4 82 2,147,483,647 0.09 0 2 4.67 63.42 0 0 0.63 3.63
06:11 2 17.4 82 2,147,483,647 0.09 0 2 3.93 49.06 0 0 0.63 3.07
06:10 2 17.4 82 2,147,483,647 0.08 0 1.97 4.73 62.51 0 0 0.63 3.63
06:09 2 17.4 82 2,147,483,647 0.09 0 1.94 4.38 46.39 0 0 1.57 4.18
06:08 2 17.4 82 2,147,483,647 0.09 0 1.91 3.88 58.74 0 0 1.1 3.62
06:06 2 17.4 81 2,147,483,647 0.08 0 1.91 3.82 53.03 0 0 0.64 3.06
06:05 2 17.5 81 2,147,483,647 0.07 0 1.9 3.59 50.12 0 0 0.64 3.06